User: anonymous   Login
Location: Unspecified
(0.0000°N, 0.0000°E)
Time: 21:09:16
(UTC+00:00)
Language:

COSMOS 2437 - Orbit

View from above orbital plane
View from above orbital plane
View from above satellite
View from above satellite

Ground track
Ground track

The orbit is defined by the following mean orbital elements,

1 32954U          26145.65926279 +.00000000 +00000-0 +71548-3 0 00008
2 32954  82.5042  11.4735 0021162  20.9297 359.2282 12.42759240    05
Epoch (UTC): 25 May 2026 15:49:20
Eccentricity: 0.0021162
inclination: 82.5042°
perigee height: 1478 km
apogee height: 1512 km
right ascension of ascending node: 11.4735°
argument of perigee: 20.9297°
revolutions per day: 12.42759240
mean anomaly at epoch: 359.2282°

The dashed part of the orbit path shows where the satellite is in the earth's shadow,  

DLR